Flag for U.S.A. Weather past 2 weeks in Cedar Rapids, Iowa, U.S.A.

Now
79 °F

Passing clouds.


Feels Like: 83 °F
Forecast: 69 / 87 °F
Wind: 10 mph from Southeast

Location: Cedar Rapids Municipal Airport

Current Time: Aug 21, 2014 at 5:11:53 PM

Latest Report: Aug 21, 2014 at 4:52 PM


Visibility: 8 mi

Pressure: 29.85 "Hg

Humidity: 88%

Dew point: 75 °F

Location of Cedar RapidsLocation

Historic Weather in Cedar Rapids — Graph

°F

Cedar Rapids temperature yesterday

Maximum temperature yesterday: 74 °F (at 12:52 PM)
Minimum temperature yesterday: 61 °F (at 3:52 AM)
Average temperature yesterday: 68 °F

Past Weeks' High & Low Weather Summary

 TemperatureHumidityPressure
High84 °F (Aug 19, 2:52 PM)100% (Aug 11, 2:52 AM)30.11 "Hg (Aug 11, 2:52 AM)
Low51 °F (Aug 13, 4:52 AM)37% (Aug 12, 5:52 PM)29.68 "Hg (Aug 19, 4:52 AM)
Average70 °F82%29.95 "Hg
* Reported Aug 6 3:52 PM — Aug 21 3:52 PM, Cedar Rapids, Weather by CustomWeather, © 2014

Note: Actual official high and low records may vary slightly from our data, if they occured in-between our weather recording intervals... More about our weather records

Advertising

Cedar Rapids weather history for previous 24 hours

 ConditionsComfort  
Time TempWeatherWind HumidityBarometerVisibility
3:52 PM
Aug 21
77 °FLight rain. Fog.14 mph94%29.85 "Hg6 mi
3:00 PM75 °FLight rain. Fog.9 mph100%29.89 "Hg3 mi
1:52 PM75 °FFog.7 mph100%29.86 "Hg6 mi
1:01 PM75 °FRain. Fog.3 mph96%29.92 "Hg3 mi
11:52 AM77 °FLight rain. Fog.6 mph88%29.90 "Hg6 mi
10:52 AM77 °FBroken clouds.5 mph85%29.90 "Hg9 mi
9:52 AM76 °FScattered clouds.7 mph91%29.88 "Hg8 mi
9:01 AM74 °FPartly sunny.6 mph94%29.89 "Hg8 mi
7:52 AM73 °FScattered clouds.7 mph97%29.85 "Hg7 mi
6:52 AM72 °FFog.5 mph100%29.85 "Hg6 mi
5:52 AM73 °FFog.6 mph97%29.83 "Hg6 mi
4:52 AM73 °FFog.7 mph100%29.83 "Hg5 mi
3:52 AM71 °FFog.7 mph100%29.85 "Hg2 mi
3:03 AM69 °FFog.6 mph100%29.87 "Hg3 mi
2:52 AM69 °FFog.6 mph100%29.86 "Hg4 mi
1:52 AM69 °FFog.6 mph100%29.88 "Hg5 mi
12:52 AM69 °FFog.9 mph100%29.89 "Hg6 mi
11:52 PM
Aug 20
68 °FClear.5 mph100%29.89 "Hg8 mi
10:52 PM68 °FClear.5 mph100%29.88 "Hg9 mi
9:52 PM69 °FClear.3 mph100%29.86 "Hg9 mi
8:52 PM70 °FSunny.7 mph97%29.85 "Hg10 mi
7:52 PM73 °FSunny.5 mph90%29.87 "Hg10 mi
6:52 PM74 °FSunny.5 mph88%29.87 "Hg10 mi
5:52 PM74 °FSunny.9 mph88%29.88 "Hg10 mi
Weather by CustomWeather, © 2014

See weather overviewHow to use our weather pages